Torna al catalogo

ONEWEB-0577

AttivoComunicazioniPO
NORAD 56066·PAYLOAD·🇬🇧 United Kingdom

Lanciato Mar 26, 2023 da Satish Dhawan Space Centre

Loading…

Prossimi Passaggi (prossime 24 ore)

TLE

AggiornatoSource: CelesTrak SupGP

Epoca: Sep 14, 2026, 21:40 UTC

1 56066C 23043W   26257.90331435 -.00002236  00000+0 -58568-2 0  2570
2 56066  87.9148 210.9606 0002694  91.6844 301.4509 13.16596105    19

Traccia ONEWEB-0577 in tempo reale con AllMySat

Download on the App Store